Brooms Barn, United Kingdom

1:02 AM GMT on February 28, 2017 (GMT +0000)
Mildenhall Air Base

Weather History for EGUN - November, 2012

Change the Weather History Date:

Thursday, November 8, 2012

  Actual Average Record
Temperature  
Mean Temperature 50 °F -  
Max Temperature 55 °F - - ()
Min Temperature 46 °F - - ()
Degree Days  
Heating Degree Days 14    
Moisture  
Dew Point 47 °F    
Average Humidity 91    
Maximum Humidity 100    
Minimum Humidity 68    
Precipitation  
Precipitation 0.00 in - - ()
Sea Level Pressure  
Sea Level Pressure 30.04 in    
Wind  
Wind Speed 11 mph ()    
Max Wind Speed 16 mph    
Max Gust Speed 24 mph    
Visibility 6.2 miles    
Events      
T = Trace of Precipitation, MM = Missing Value Source: Averaged Metar Reports

Daily Weather History Graph

Daily Weather History Graph

Search for Another Location

Airport or City:

Trip Planner

Search our weather history database for the weather conditions in past years. The results will help you decide how hot, cold, wet, or windy it might be!

Date:

Astronomy

Nov. 08, 2012 Rise Set
Actual Time 7:07 AM GMT 4:15 PM GMT
Civil Twilight 6:30 AM GMT 4:52 PM GMT
Nautical Twilight 5:49 AM GMT 5:33 PM GMT
Astronomical Twilight 5:09 AM GMT 6:13 PM GMT
Moon 12:00 AM GMT (11/8) 1:29 PM GMT (11/8)
Length of Visible Light 10h 22m
Length of Day
9h 08m
Waning Crescent, 35% of the Moon is Illuminated
Nov 8
Waning Crescent
Nov 13
New
Nov 20
First Quarter
Nov 28
Full
Dec 6
Last Quarter

Hourly Weather History & Observations

Time (GMT) Temp. Windchill Dew Point Humidity Pressure Visibility Wind Dir Wind Speed Gust Speed Precip Events Conditions
12:58 AM 47.1 °F - 47.1 °F 100% 30.09 in 6.2 mi SW 16.1 mph - N/A   Clear
1:58 AM 46.9 °F - 46.9 °F 100% 30.08 in 6.2 mi SW 12.7 mph - N/A   Clear
2:58 AM 47.1 °F - 47.1 °F 100% 30.07 in 6.2 mi SW 12.7 mph - N/A   Clear
3:58 AM 47.5 °F - 47.5 °F 100% 30.06 in 6.2 mi SW 15.0 mph - N/A   Clear
4:58 AM 47.7 °F - 47.7 °F 100% 30.06 in 6.2 mi SW 12.7 mph - N/A   Clear
5:58 AM 47.3 °F - 47.3 °F 100% 30.05 in 6.2 mi SW 11.5 mph - N/A   Scattered Clouds
6:58 AM 47.1 °F - 47.1 °F 100% 30.04 in 6.2 mi WSW 10.4 mph - N/A   Clear
7:28 AM 46.4 °F 41.9 °F 46.4 °F 100% 30.04 in 6.2 mi WSW 9.2 mph - N/A   Mostly Cloudy
7:58 AM 47.1 °F - 47.1 °F 100% 30.05 in 6.2 mi WSW 10.4 mph - N/A   Overcast
8:58 AM 48.4 °F - 48.4 °F 100% 30.05 in 6.2 mi WSW 12.7 mph - N/A   Mostly Cloudy
8:59 AM 48.2 °F - 48.2 °F 100% 30.04 in 6.2 mi WSW 11.5 mph - N/A   Scattered Clouds
9:58 AM 50.9 °F - 50.2 °F 97% 30.05 in 6.2 mi West 13.8 mph - N/A   Clear
10:24 AM 51.8 °F - 50.0 °F 94% 30.04 in 6.2 mi West 15.0 mph - N/A   Mostly Cloudy
10:52 AM 51.8 °F - 48.2 °F 88% 30.04 in 6.2 mi West 12.7 mph - N/A   Scattered Clouds
10:58 AM 52.9 °F - 48.2 °F 84% 30.05 in 6.2 mi West 12.7 mph - N/A   Scattered Clouds
11:39 AM 55.4 °F - 46.4 °F 72% 30.03 in 6.2 mi West 13.8 mph - N/A   Mostly Cloudy
11:58 AM 54.0 °F - 46.4 °F 76% 30.03 in 6.2 mi West 16.1 mph 24.2 mph N/A   Mostly Cloudy
12:58 PM 55.2 °F - 45.0 °F 68% 30.03 in 6.2 mi West 15.0 mph - N/A   Overcast
1:58 PM 52.0 °F - 44.8 °F 76% 30.03 in 6.2 mi West 13.8 mph - N/A   Overcast
2:58 PM 51.3 °F - 45.3 °F 80% 30.03 in 6.2 mi West 10.4 mph - N/A   Overcast
3:58 PM 50.7 °F - 45.7 °F 83% 30.03 in 6.2 mi West 8.1 mph - N/A   Overcast
4:58 PM 49.8 °F - 46.6 °F 89% 30.02 in 6.2 mi WSW 5.8 mph - N/A   Overcast
5:58 PM 49.8 °F - 45.5 °F 85% 30.03 in 6.2 mi West 8.1 mph - N/A   Overcast
6:58 PM 48.9 °F - 46.8 °F 92% 30.03 in 6.2 mi WSW 4.6 mph - N/A   Overcast
7:58 PM 48.4 °F - 47.1 °F 95% 30.03 in 6.2 mi WSW 4.6 mph - N/A   Overcast
8:58 PM 48.2 °F - 46.8 °F 95% 30.03 in 6.2 mi WSW 5.8 mph - N/A   Overcast
9:58 PM 48.2 °F - 44.2 °F 86% 30.03 in 6.2 mi SW 6.9 mph - N/A   Overcast
10:58 PM 48.2 °F - 43.3 °F 83% 30.02 in 6.2 mi SW 6.9 mph - N/A   Overcast
11:58 PM 48.0 °F - 45.1 °F 90% 30.01 in 6.2 mi SW 6.9 mph - N/A   Overcast